Regional Weather Roundup
Issued by NWS

Home | Current Version | Previous Version | Text Only | Print | Product List | Glossary Off
Versions: 1 2 3 4 5 6 7 8 9 10 11 12 13 14 15 16 17 18 19 20 21 22 23 24 25 26 27 28 29 30 31 32 33 34 35 36 37 38 39 40 41 42 43 44 45 46 47 48 49 50

000
ASUS43 KMPX 222210
RWRMN
WEATHER ROUNDUP FOR MINNESOTA
NATIONAL WEATHER SERVICE TWIN CITIES/CHANHASSEN MN
500 PM CDT FRI JUL 22 2016


NOTE: "FAIR" INDICATES FEW OR NO CLOUDS BELOW 12,000 FEET WITH NO
SIGNIFICANT WEATHER AND/OR OBSTRUCTIONS TO VISIBILITY. N/A MEANS
CURRENT SKY AND/OR WEATHER CONDITIONS ARE NOT AVAILABLE.

MNZ060>063-068>070-222300-
   Twin Cities Metro

CITY           SKY/WX    TMP DP  RH WIND       PRES   REMARKS
TWIN CITIES    MOSUNNY   95  54  25 SE10      29.98S HX  93
ST PAUL        SUNNY     94  59  31 S5        29.98S HX  93
CRYSTAL        SUNNY     96  56  26 NE5       29.97F HX  94
BLAINE         SUNNY     97  57  26 NE5       29.99F HX  95
LAKEVILLE      SUNNY     90  59  35 E6        30.00S
EDEN PRAIRIE   SUNNY     96  56  26 SE9       29.97F HX  94
LAKEVILLE      SUNNY     90  59  35 E6        30.00S
SOUTH ST PAUL  SUNNY     94  54  26 E5        29.98S HX  91
LAKE ELMO      FAIR      91  63  38 E3        30.00F HX  92
$$
MNZ001>005-007-008-013>017-022>024-027-028-222300-
   Northwest Minnesota

CITY           SKY/WX    TMP DP  RH WIND       PRES   REMARKS
BEMIDJI        CLOUDY    86  55  35 NW9       30.04S
HALLOCK        CLOUDY    82  64  54 N3        30.02F
ROSEAU         PTSUNNY   82  64  54 W10G16    30.02S
WARROAD        MOSUNNY   82  63  51 W7        30.01F
THIEF RVR FALL SUNNY     83  60  45 N9        30.04F
CROOKSTON      SUNNY     84  59  42 N6        30.03F
FOSSTON        CLOUDY    84  61  45 NW5       30.05S
DETROIT LAKES  CLOUDY    86  64  48 NW5       30.05S
MOORHEAD       CLOUDY    84  73  70 NE9       30.01R HX  91
PARK RAPIDS    CLOUDY    88  68  51 NW8       30.02F HX  91
MAHNOMEN       FAIR      83  63  51 N7        30.02F
$$
MNZ006-009>011-018-025>026-222300-
   North Central Minnesota

CITY           SKY/WX    TMP DP  RH WIND       PRES   REMARKS
BAUDETTE       SUNNY     85  58  39 NW9       30.00F
FLAG ISLAND    SUNNY     81  57  44 NW9       29.98F
INTL FALLS     SUNNY     83  58  42 NW14      29.99S
WASKISH        SUNNY     82  63  51 W8        30.02S
BIG FORK       SUNNY     88  57  35 W3        30.02S
LONGVILLE      MOSUNNY   86  66  51 CALM      30.03S
GRAND RAPIDS   SUNNY     87  58  37 NW12      30.04S
CRANE LAKE     SUNNY     82  54  36 NW5       30.00F
ORR            SUNNY     84  52  32 NW8       29.98S
COOK           SUNNY     86  55  35 NW9       30.00F
WALKER         FAIR      83  65  53 N6        30.03S
$$
MNZ012-019>021-037-222300-
   Northeast Minnesota

CITY           SKY/WX    TMP DP  RH WIND       PRES   REMARKS
DULUTH         MOSUNNY   89  58  34 W13G21    30.00F
ELY            SUNNY     84  46  26 NW9G22    29.99F
HIBBING        SUNNY     85  56  37 W9G18     30.01F
EVELETH        SUNNY     85  50  29 W10       30.02F
DULUTH HARBOR  SUNNY     91  61  35 NW15      29.95F HX  91
TWO HARBORS    SUNNY     91  63  38 CALM      29.95F HX  92
SILVER BAY     SUNNY     90  55  31 NW7       29.95F
GRAND MARAIS     N/A     90  46  21 NW10G18   29.90S
G MARAIS ARPRT SUNNY     81  48  32 W8G20     29.99S
$$
MNZ029>031-032-039>041-046>048-054>057-064-222300-
   West Central Minnesota

CITY           SKY/WX    TMP DP  RH WIND       PRES   REMARKS
FERGUS FALLS   CLOUDY    86  66  51 CALM      30.01R
WHEATON        CLOUDY    84  75  74 S6        30.02S HX  92
MORRIS         PTSUNNY   88  68  51 CALM      30.01F HX  91
ALEXANDRIA     MOSUNNY   88  64  44 N6        30.06S
ELBOW LAKE     FAIR      83  71  67 S6        30.01F HAZE
WADENA         CLOUDY    84  68  58 CALM      30.03F
GLENWOOD       CLOUDY    88  61  40 N5        30.06R
APPLETON       SUNNY     90  64  43 NE6       30.02R HX  91
BENSON         SUNNY     90  61  37 NE5       30.03R
ORTONVILLE     MOSUNNY   88  64  45 CALM      30.03R
MADISON        SUNNY     90  63  40 NE5       30.02S HX  90
WILLMAR        FAIR      91  66  43 NE7       30.03R HX  94
$$
MNZ033>034-036-042>043-049>051-058-059-222300-
   Central Minnesota

CITY           SKY/WX    TMP DP  RH WIND       PRES   REMARKS
ST CLOUD       SUNNY     91  65  41 N3        30.01S HX  93
SAUK CENTRE    FAIR      89  58  35 N3        30.04S
PAYNESVILLE    SUNNY     89  64  43 NE5       30.03S HX  90
AITKIN         SUNNY     90  64  43 W3        30.00F HX  91
PINE RIVER     MOSUNNY   88  70  55 NW5       30.05S HX  92
BRAINERD       SUNNY     89  66  46 W5        30.02F HX  91
STAPLES        MOSUNNY   88  63  42 NW6       30.03F
LONG PRAIRIE   FAIR      88  63  42 CALM      30.04F
LITTLE FALLS   SUNNY     90  61  37 W3        30.03S
LITCHFIELD     SUNNY     91  63  38 NE7       30.02R HX  92
BUFFALO        SUNNY     92  58  31 N6        30.01S HX  91
MAPLE LAKE     SUNNY     92  66  42 NE3       30.02S HX  94
HUTCHINSON     CLOUDY    92  63  37 NE7       30.02S HX  93
$$
MNZ037-044-045-052-053-222300-
   East Central Minnesota

CITY           SKY/WX    TMP DP  RH WIND       PRES   REMARKS
PRINCETON      SUNNY     93  61  33 N5        30.00F HX  93
MORA           SUNNY     88  63  42 W3        30.02F
CAMBRIDGE      SUNNY     93  68  43 NW5       29.99F HX  97
RUSH CITY      SUNNY     90  61  38 CALM      30.01F
MOOSE LAKE     SUNNY     88  66  48 W3        29.99S HX  90
HINCKLEY       FAIR      90  68  48 W5        30.00F HX  93
CLOQUET        SUNNY     90  55  31 NW10G16   30.00F
MCGREGOR       MOSUNNY   88  66  48 NW5       30.02S HX  90
$$
MNZ071>073-080-081-089-090-097-098-222300-
   Southwest Minnesota

CITY           SKY/WX    TMP DP  RH WIND       PRES   REMARKS
MONTEVIDEO     SUNNY     95  66  38 E7        30.03R HX  98
GRANITE FALLS  SUNNY     91  67  45 NE8       30.02R HX  95
CANBY          SUNNY     92  71  50 NE9       30.03R HX  98
MARSHALL       MOSUNNY   89  76  65 E13       30.01R HX 100
REDWOOD FALLS  SUNNY     91  67  44 E7        29.99S HX  94
OLIVIA         SUNNY     90  61  37 E6        30.01R
PIPESTONE      SUNNY     91  72  52 E6        30.01S HX  98
WINDOM         SUNNY     90  79  70 E9        30.00S HX 105
WORTHINGTON    MOSUNNY   87  80  79 E10       30.00F HX 103
JACKSON        PTSUNNY   88  77  70 E7        30.01F HX 100
TRACY          MOSUNNY   91  79  68 NE8       30.01R HX 106
SLAYTON        MOSUNNY   89  77  69 E12       30.02S HX 101
$$
MNZ065>067-074>077-082>085-091>093-222300-
   South Central Minnesota

CITY           SKY/WX    TMP DP  RH WIND       PRES   REMARKS
MANKATO        PTSUNNY   90  75  62 E7        29.98F HX 100
NEW ULM        SUNNY     90  73  58 E8        29.99S HX  98
ST JAMES       SUNNY     84  75  74 E6        29.99F HX  92
FAIRMONT       MOSUNNY   88  66  48 E6        29.98F HX  90
GLENCOE        SUNNY     92  69  46 NE3       30.00R HX  96
FARIBAULT      PTSUNNY   90  77  66 CALM      30.00S HX 102
OWATONNA       MOSUNNY   90  77  66 NE6       30.00R HX 102
WASECA         PTSUNNY   86  73  66 CALM      30.01S HX  93
ALBERT LEA     CLOUDY    88  79  74 SE7       29.99F HX 102
$$
MNZ078>079-086>088-094>096-222300-
   Southeast Minnesota

CITY           SKY/WX    TMP DP  RH WIND       PRES   REMARKS
ROCHESTER      MOSUNNY   89  79  72 SE6       30.00F HX 104
RED WING       SUNNY     91  59  33 CALM      29.97S HX  90
STANTON        SUNNY     91  66  43 NE5       29.98S HX  94
DODGE CENTER   MOSUNNY   93  75  55 SE3       30.00F HX 104
WINONA         SUNNY     90  73  58 NE3       29.97S HX  98
AUSTIN         MOSUNNY   88  79  74 S6        30.00S HX 102
PRESTON        MOSUNNY   87  76  69 S6        30.01F HX  98
$$
ABBREVIATIONS USED IN REMARKS
   TC - TEMPERATURES IN CELSIUS
  WCI - WIND CHILL INDEX
   HX - HEAT INDEX
  VSB - VISIBILITY
$$




USA.gov is the U.S. government's official web portal to all federal, state and local government web resources and services.